Time,TemperatureF,DewpointF,PressureIn,WindDirection,WindDirectionDegrees,WindSpeedMPH,WindSpeedGustMPH,Humidity,HourlyPrecipIn,Conditions,Clouds,dailyrainin,SoftwareType,DateUTC
2013-11-20 00:00:00,44.0,-99.9,-100.00,SSE,158,14.0,18.0,-999,0.00,,,0.00,,2013-11-20 06:00:00,
2013-11-20 00:42:00,44.0,-99.9,-100.00,SSE,158,14.0,18.0,-999,0.00,,,0.00,,2013-11-20 06:42:00,
2013-11-20 00:52:00,44.0,-99.9,-100.00,SSE,158,14.0,18.0,-999,0.00,,,0.00,,2013-11-20 06:52:00,
2013-11-20 01:00:00,43.0,-99.9,-100.00,SSE,155,12.0,16.0,-999,0.00,,,0.00,,2013-11-20 07:00:00,
2013-11-20 01:42:00,43.0,-99.9,-100.00,SSE,155,12.0,16.0,-999,0.00,,,0.00,,2013-11-20 07:42:00,
2013-11-20 01:52:00,43.0,-99.9,-100.00,SSE,155,12.0,16.0,-999,0.00,,,0.00,,2013-11-20 07:52:00,
2013-11-20 02:00:00,43.0,-99.9,-100.00,SSE,154,11.0,14.0,-999,0.00,,,0.00,,2013-11-20 08:00:00,
2013-11-20 02:42:00,43.0,-99.9,-100.00,SSE,154,11.0,14.0,-999,0.00,,,0.00,,2013-11-20 08:42:00,
2013-11-20 02:52:00,43.0,-99.9,-100.00,SSE,154,11.0,14.0,-999,0.00,,,0.00,,2013-11-20 08:52:00,
2013-11-20 04:00:00,42.0,-99.9,-100.00,SSE,157,13.0,19.0,-999,0.00,,,0.00,,2013-11-20 10:00:00,
2013-11-20 04:43:00,42.0,-99.9,-100.00,SSE,157,13.0,19.0,-999,0.00,,,0.00,,2013-11-20 10:43:00,
2013-11-20 04:53:00,42.0,-99.9,-100.00,SSE,157,13.0,19.0,-999,0.00,,,0.00,,2013-11-20 10:53:00,
2013-11-20 05:00:00,42.0,-99.9,-100.00,SSE,158,11.0,16.0,-999,0.00,,,0.00,,2013-11-20 11:00:00,
2013-11-20 05:43:00,42.0,-99.9,-100.00,SSE,158,11.0,16.0,-999,0.00,,,0.00,,2013-11-20 11:43:00,
2013-11-20 05:52:00,42.0,-99.9,-100.00,SSE,158,11.0,16.0,-999,0.00,,,0.00,,2013-11-20 11:52:00,
2013-11-20 06:00:00,41.0,-99.9,-100.00,SSE,160,11.0,20.0,-999,0.01,,,0.01,,2013-11-20 12:00:00,
2013-11-20 06:42:00,41.0,-99.9,-100.00,SSE,160,11.0,20.0,-999,0.01,,,0.01,,2013-11-20 12:42:00,
2013-11-20 06:52:00,41.0,-99.9,-100.00,SSE,160,11.0,20.0,-999,0.01,,,0.01,,2013-11-20 12:52:00,
2013-11-20 07:00:00,37.0,-99.9,-100.00,SSE,157,11.0,14.0,-999,0.19,,,0.20,,2013-11-20 13:00:00,
2013-11-20 07:52:00,37.0,-99.9,-100.00,SSE,157,11.0,14.0,-999,0.19,,,0.20,,2013-11-20 13:52:00,
2013-11-20 08:00:00,36.0,-99.9,-100.00,SSE,152,9.0,15.0,-999,0.21,,,0.41,,2013-11-20 14:00:00,
2013-11-20 08:42:00,36.0,-99.9,-100.00,SSE,152,9.0,15.0,-999,0.21,,,0.41,,2013-11-20 14:42:00,
2013-11-20 08:52:00,36.0,-99.9,-100.00,SSE,152,9.0,15.0,-999,0.21,,,0.41,,2013-11-20 14:52:00,
2013-11-20 09:00:00,37.0,-99.9,-100.00,SSE,155,9.0,14.0,-999,0.13,,,0.54,,2013-11-20 15:00:00,
2013-11-20 09:54:00,37.0,-99.9,-100.00,SSE,155,9.0,14.0,-999,0.13,,,0.54,,2013-11-20 15:54:00,
2013-11-20 10:00:00,37.0,-99.9,-100.00,SSE,157,13.0,19.0,-999,0.08,,,0.62,,2013-11-20 16:00:00,
2013-11-20 10:43:00,37.0,-99.9,-100.00,SSE,157,13.0,19.0,-999,0.08,,,0.62,,2013-11-20 16:43:00,
2013-11-20 10:52:00,37.0,-99.9,-100.00,SSE,157,13.0,19.0,-999,0.08,,,0.62,,2013-11-20 16:52:00,
2013-11-20 11:00:00,37.0,-99.9,-100.00,SSE,164,13.0,25.0,-999,0.04,,,0.66,,2013-11-20 17:00:00,
2013-11-20 11:42:00,37.0,-99.9,-100.00,SSE,164,13.0,25.0,-999,0.04,,,0.66,,2013-11-20 17:42:00,
2013-11-20 11:52:00,37.0,-99.9,-100.00,SSE,164,13.0,25.0,-999,0.04,,,0.66,,2013-11-20 17:52:00,
2013-11-20 12:00:00,38.0,-99.9,-100.00,SSE,162,13.0,23.0,-999,0.00,,,0.66,,2013-11-20 18:00:00,
2013-11-20 12:43:00,38.0,-99.9,-100.00,SSE,162,13.0,23.0,-999,0.00,,,0.66,,2013-11-20 18:43:00,
2013-11-20 12:52:00,38.0,-99.9,-100.00,SSE,162,13.0,23.0,-999,0.00,,,0.66,,2013-11-20 18:52:00,
2013-11-20 13:00:00,38.0,-99.9,-100.00,SSE,166,13.0,24.0,-999,0.00,,,0.66,,2013-11-20 19:00:00,
2013-11-20 13:42:00,38.0,-99.9,-100.00,SSE,166,13.0,24.0,-999,0.00,,,0.66,,2013-11-20 19:42:00,
2013-11-20 13:52:00,38.0,-99.9,-100.00,SSE,166,13.0,24.0,-999,0.00,,,0.66,,2013-11-20 19:52:00,
2013-11-20 14:00:00,39.0,-99.9,-100.00,SSE,161,11.0,17.0,-999,0.00,,,-99.99,,2013-11-20 20:00:00,
2013-11-20 14:42:00,39.0,-99.9,-100.00,SSE,161,11.0,17.0,-999,0.00,,,-99.99,,2013-11-20 20:42:00,
2013-11-20 14:53:00,39.0,-99.9,-100.00,SSE,161,11.0,17.0,-999,0.00,,,-99.99,,2013-11-20 20:53:00,
2013-11-20 15:00:00,39.0,-99.9,-100.00,SSE,159,10.0,14.0,-999,0.01,,,0.67,,2013-11-20 21:00:00,
2013-11-20 15:43:00,39.0,-99.9,-100.00,SSE,159,10.0,14.0,-999,0.01,,,0.67,,2013-11-20 21:43:00,
2013-11-20 15:53:00,39.0,-99.9,-100.00,SSE,159,10.0,14.0,-999,0.01,,,0.67,,2013-11-20 21:53:00,
2013-11-20 16:00:00,40.0,-99.9,-100.00,SSE,159,8.0,12.0,-999,0.00,,,0.67,,2013-11-20 22:00:00,
2013-11-20 16:42:00,40.0,-99.9,-100.00,SSE,159,8.0,12.0,-999,0.00,,,0.67,,2013-11-20 22:42:00,
2013-11-20 16:53:00,40.0,-99.9,-100.00,SSE,159,8.0,12.0,-999,0.00,,,0.67,,2013-11-20 22:53:00,
2013-11-20 17:00:00,40.0,-99.9,-100.00,SSE,157,8.0,10.0,-999,0.00,,,0.67,,2013-11-20 23:00:00,
2013-11-20 17:53:00,40.0,-99.9,-100.00,SSE,157,8.0,10.0,-999,0.00,,,0.67,,2013-11-20 23:53:00,
2013-11-20 18:00:00,40.0,-99.9,-100.00,SSE,156,7.0,10.0,-999,0.00,,,0.67,,2013-11-21 00:00:00,
2013-11-20 18:42:00,40.0,-99.9,-100.00,SSE,156,7.0,10.0,-999,0.00,,,0.67,,2013-11-21 00:42:00,
2013-11-20 18:52:00,40.0,-99.9,-100.00,SSE,156,7.0,10.0,-999,0.00,,,0.67,,2013-11-21 00:52:00,
2013-11-20 19:00:00,39.0,-99.9,-100.00,SSE,154,8.0,11.0,-999,0.00,,,0.67,,2013-11-21 01:00:00,
2013-11-20 19:42:00,39.0,-99.9,-100.00,SSE,154,8.0,11.0,-999,0.00,,,0.67,,2013-11-21 01:42:00,
2013-11-20 19:52:00,39.0,-99.9,-100.00,SSE,154,8.0,11.0,-999,0.00,,,0.67,,2013-11-21 01:52:00,
2013-11-20 20:00:00,40.0,-99.9,-100.00,SSE,150,8.0,13.0,-999,0.00,,,0.67,,2013-11-21 02:00:00,
2013-11-20 20:52:00,40.0,-99.9,-100.00,SSE,150,8.0,13.0,-999,0.00,,,0.67,,2013-11-21 02:52:00,
2013-11-20 21:00:00,39.0,-99.9,-100.00,SE,145,5.0,8.0,-999,0.00,,,0.67,,2013-11-21 03:00:00,
2013-11-20 21:43:00,39.0,-99.9,-100.00,SE,145,5.0,8.0,-999,0.00,,,0.67,,2013-11-21 03:43:00,
2013-11-20 21:54:00,39.0,-99.9,-100.00,SE,145,5.0,8.0,-999,0.00,,,0.67,,2013-11-21 03:54:00,
2013-11-20 22:00:00,38.0,-99.9,-100.00,SSE,150,5.0,7.0,-999,0.00,,,0.67,,2013-11-21 04:00:00,
2013-11-20 22:43:00,38.0,-99.9,-100.00,SSE,150,5.0,7.0,-999,0.00,,,0.67,,2013-11-21 04:43:00,
2013-11-20 22:53:00,38.0,-99.9,-100.00,SSE,150,5.0,7.0,-999,0.00,,,0.67,,2013-11-21 04:53:00,
2013-11-20 23:00:00,37.0,-99.9,-100.00,SE,138,4.0,7.0,-999,0.00,,,0.67,,2013-11-21 05:00:00,
2013-11-20 23:43:00,37.0,-99.9,-100.00,SE,138,4.0,7.0,-999,0.00,,,0.67,,2013-11-21 05:43:00,
2013-11-20 23:53:00,37.0,-99.9,-100.00,SE,138,4.0,7.0,-999,0.00,,,0.67,,2013-11-21 05:53:00,